TimeEDT,TemperatureF,Dew PointF,Humidity,Sea Level PressureIn,VisibilityMPH,Wind Direction,Wind SpeedMPH,Gust SpeedMPH,PrecipitationIn,Events,Conditions,WindDirDegrees,DateUTC
12:56 AM,75.0,71.1,87,30.09,10.0,SSW,8.1,-,N/A,,Scattered Clouds,200,2007-06-18 04:56:00
1:56 AM,73.9,70.0,87,30.09,10.0,SSW,5.8,-,N/A,,Clear,200,2007-06-18 05:56:00
2:56 AM,73.9,70.0,87,30.08,10.0,SE,3.5,-,N/A,,Clear,140,2007-06-18 06:56:00
3:56 AM,73.0,70.0,90,30.08,10.0,South,3.5,-,N/A,,Clear,190,2007-06-18 07:56:00
4:56 AM,72.0,69.1,91,30.07,7.0,Calm,Calm,-,N/A,,Clear,0,2007-06-18 08:56:00
5:56 AM,73.0,70.0,90,30.08,9.0,SW,4.6,-,N/A,,Clear,230,2007-06-18 09:56:00
6:56 AM,73.0,69.1,87,30.09,10.0,SW,4.6,-,N/A,,Partly Cloudy,230,2007-06-18 10:56:00
7:56 AM,75.0,70.0,84,30.09,10.0,SW,4.6,-,N/A,,Clear,220,2007-06-18 11:56:00
8:56 AM,80.1,68.0,67,30.10,10.0,SW,9.2,-,N/A,,Clear,230,2007-06-18 12:56:00
9:56 AM,82.9,68.0,60,30.10,10.0,WSW,9.2,-,N/A,,Partly Cloudy,240,2007-06-18 13:56:00
10:56 AM,86.0,68.0,55,30.11,10.0,WSW,6.9,-,N/A,,Partly Cloudy,250,2007-06-18 14:56:00
11:56 AM,86.0,69.1,57,30.11,10.0,Variable,4.6,-,N/A,,Scattered Clouds,0,2007-06-18 15:56:00
12:56 PM,88.0,69.1,53,30.10,10.0,Variable,5.8,-,N/A,,Scattered Clouds,0,2007-06-18 16:56:00
1:56 PM,90.0,70.0,52,30.09,10.0,Variable,5.8,-,N/A,,Scattered Clouds,0,2007-06-18 17:56:00
2:56 PM,91.0,70.0,50,30.07,10.0,Variable,3.5,-,N/A,,Mostly Cloudy,0,2007-06-18 18:56:00
3:56 PM,91.0,73.0,55,30.05,10.0,South,11.5,-,N/A,,Mostly Cloudy,190,2007-06-18 19:56:00
4:56 PM,90.0,73.9,59,30.04,10.0,South,13.8,17.3,N/A,,Partly Cloudy,190,2007-06-18 20:56:00
5:56 PM,89.1,73.0,59,30.03,10.0,South,11.5,-,N/A,,Partly Cloudy,180,2007-06-18 21:56:00
6:56 PM,86.0,72.0,63,30.03,10.0,South,11.5,-,N/A,,Partly Cloudy,190,2007-06-18 22:56:00
7:56 PM,82.0,71.1,69,30.05,10.0,South,9.2,-,N/A,,Partly Cloudy,190,2007-06-18 23:56:00
8:56 PM,79.0,73.0,82,30.07,10.0,South,10.4,-,N/A,,Clear,190,2007-06-19 00:56:00
9:56 PM,78.1,73.0,84,30.09,10.0,SSW,10.4,-,N/A,,Clear,200,2007-06-19 01:56:00
10:56 PM,78.1,71.1,79,30.10,10.0,South,8.1,-,N/A,,Partly Cloudy,190,2007-06-19 02:56:00
11:56 PM,79.0,69.1,72,30.09,10.0,SW,6.9,-,N/A,,Mostly Cloudy,230,2007-06-19 03:56:00